NOAA 16 DEB, 42337

Orbit data source: Space-Track

NOAA 16 DEB, 42337 is space debris in SSO originally from a launch on Thu, 21 Sep 2000 UTC launched from the Air Force Western Test Range (AFWTR). Debris objects in space refer to the collection of defunct objects orbiting the Earth. Examples of debris include non-operational satellites, rocket bodies, and fragments generated from explosions, collisions, or faulty payload assembly.

Loading next visibility...
Identifier
42337, 2000-055QD
Orbit
SSO
Country
Flag of USUS
Related business
Manufacturer
Unknown
Mission
Spacecraft
Bus & Motor
Unknown
Mass
Unknown
Launch date (UTC)
2000-09-21 (26 years ago)
Launch vehicle
Unknown
Launch site
Air Force Western Test Range (AFWTR)
Object type
Payload
Rocket body
Debris
Shape & HBR
Unknown shape, 0.1 m
Radar Cross Section
Medium (>0.1 m² and <1 m²)

Expand to show TLE details & history
Last TLE update: 5 days ago

TLE from 5 days ago
0 NOAA 16 DEB
1 42337U 00055QD  26168.23234200  .00010960  00000-0  15987-2 0  9996
2 42337  98.8076 348.5721 0030428 326.7698  33.1597 14.75673650542189
Epoch: 2026-06-17T05:34Z
TLE epoch observation values (Epoch: 2026-06-17T05:34:34.348Z)
Latitude
-0.00007°
Longitude
-0.56398°
Altitude
628.132 km
Speed
7.554 km/s
True Right ascension
23h 14m 17s
True Declination
0° 00' 00"
Sunlit
Object was in daylight at epoch
Visualization orbit readout
Latitude
Unknown
Longitude
Unknown
Altitude
Unknown
Speed
Unknown
Apparent Right ascension
Unknown
Apparent Declination
Unknown
Sunlit
N/A
Visualization observer readout
Local Sidereal Time
21:39:24
Azimuth
Unknown
Elevation
Unknown
Doppler factor
Unknown
Orbital elements
Apogee altitude
661.458 km
Perigee altitude
618.748 km
Semi-major axis
7,018.24 km
Eccentricity
0.00304
Inclination
98.8076°
RAAN
348.5721°
Arg. of periapsis
326.7698°
True anomaly
33.35103°
Mean anomaly
33.1597°
Eccentric anomaly
33.2553°
Mean motion
3.69148 °/min
Orbital period
97.52 mins
BSTAR
0.0015987
Loading maneuver chart data...
Computing Atmospheric mass density...
Loading historical data...
Loading historical data...
Loading historical data...
Loading historical data...
Loading historical data...
Loading historical data...
Loading historical data...

Documentation

Showing up to 5 results
|